Location: Brachstadt
(48.6975°N, 10.6755°E)
Time: 05:58:30
(UTC+00:00)

Cosmos 1892 Rocket - Pass Details

Date: 18 September 2020
Orbit: 606 x 633 km, 82.5° (Epoch: 22 October)

Event Time Altitude Azimuth Distance (km) Brightness Sun altitude
Rises 20:14:48 0° 349° (N) 2,878 7.7 -27.1°
Reaches altitude 10° 20:17:02 10° 349° (N) 1,968 6.7 -27.4°
Enters shadow 20:20:06 45° 346° (NNW) 828 4.4 -27.7°
